Location: Bayview
(38.0070°N, 122.3188°W)
Time: 13:10:02
(UTC+00:00)

Meteor 1-5 Rocket - Pass Details

Date: 29 June 2022
Orbit: 790 x 914 km, 81.2° (Epoch: 15 August)

Event Time Altitude Azimuth Distance (km) Brightness Sun altitude
Rises 12:12:20 0° 184° (S) 3,324 6.9 -6.9°
Reaches altitude 10° 12:14:43 10° 183° (S) 2,382 6.2 -6.6°
Maximum altitude 12:20:05 80° 97° (E) 812 4.3 -5.7°
Drops below altitude 10° 12:25:23 10° 11° (NNE) 2,361 7.3 -4.8°
Sets 12:27:45 0° 11° (N) 3,293 8.0 -4.5°
